Regional Weather Roundup
Issued by NWS

Home | Current Version | Previous Version | Graphics & Text | Print | Product List | Glossary On
Versions: 1 2 3 4 5 6 7 8 9 10 11 12 13 14 15 16 17 18 19 20 21 22 23 24 25 26 27 28 29 30 31 32 33 34 35 36 37 38 39 40 41 42 43 44 45 46 47 48 49 50
000
ASUS45 KCYS 170410
RWRWY

WYOMING REGIONAL WEATHER ROUNDUP
NATIONAL WEATHER SERVICE CHEYENNE WY
1000 PM MDT MON OCT 16 2017

NOTE:  "FAIR" INDICATES FEW OR NO CLOUDS BELOW 12,000 FEET
WITH NO SIGNIFICANT WEATHER AND/OR OBSTRUCTIONS TO VISIBILITY.

WYZ001-170500-
YELLOWSTONE NATIONAL PARK

CITY           SKY/WX    TMP DP  RH WIND       PRES   REMARKS
LK YELLOWSTONE   N/A     26  20  77 CALM      30.40S
W YELLOWSTONE  NOT AVBL

$$
WYZ002>013-054>058-071-098>099-170500-
NORTHERN WYOMING

CITY           SKY/WX    TMP DP  RH WIND       PRES   REMARKS
JACKSON        NOT AVBL
CODY           FAIR      55  17  22 NW6       30.22
GREYBULL       FAIR      47  25  42 SE8       30.16S
WORLAND        FAIR      44  30  57 VRB7      30.17S
SHERIDAN       FAIR      37  27  67 SW5       30.12S WCI  33
BUFFALO        FAIR      51  17  26 SW8       30.18S
GILLETTE       FAIR      38  27  64 S7        30.14S WCI  33
HULETT         FAIR      45  28  53 SW8       30.14S
NEWCASTLE      FAIR      43  27  52 N7        30.16S

$$
WYZ014>020-022>026-101>103-170500-
CENTRAL WYOMING

CITY           SKY/WX    TMP DP  RH WIND       PRES   REMARKS
BIG PINEY      FAIR      37  13  37 CALM      30.39R
PINEDALE       NOT AVBL
DUBOIS         FAIR      36  18  48 W10       30.35R WCI  28
LANDER         NOT AVBL
RIVERTON       FAIR      49  19  30 W13       30.23S
CASPER         FAIR      41  19  41 SW6       30.23S
DOUGLAS        FAIR      37  20  50 CALM      30.22R

$$
WYZ021-027>030-104>119-170500-
SOUTHERN WYOMING

CITY           SKY/WX    TMP DP  RH WIND       PRES   REMARKS
EVANSTON       FAIR      48   6  18 SW5       30.41S
KEMMERER       FAIR      43   9  24 W7        30.40F
FORT BRIDGER   FAIR      49   1  13 SW12      30.42F
ROCK SPRINGS   FAIR      48   7  18 SW6       30.37R
DIXON          FAIR      34  14  43 E3        30.40S
RAWLINS        FAIR      47   7  19 SW12      30.34R
SARATOGA       FAIR      32  14  47 SE8       30.38R WCI  25
LARAMIE        FAIR      39  11  31 W13       30.34S WCI  31
CHEYENNE       FAIR      50  11  20 W9        30.29S
TORRINGTON     FAIR      46  24  42 SW7       30.18R
PINE BLUFFS    FAIR      36  23  60 MISG      30.26S

$$



USA.gov is the U.S. government's official web portal to all federal, state and local government web resources and services.